Year,Month,Day,Hour,Minute,Value (Times are PST for temperature in C)
2008,09,04,00,00,14.20
2008,09,04,00,01,14.20
2008,09,04,00,02,14.20
2008,09,04,00,03,14.20
2008,09,04,00,04,14.20
2008,09,04,00,05,14.20
2008,09,04,00,06,14.20
2008,09,04,00,07,14.20
2008,09,04,00,08,14.20
2008,09,04,00,09,14.20
2008,09,04,00,10,14.20
2008,09,04,00,11,14.20
2008,09,04,00,12,14.20
2008,09,04,00,13,14.20
2008,09,04,00,14,14.20
2008,09,04,00,15,14.20
2008,09,04,00,16,14.20
2008,09,04,00,17,14.20
2008,09,04,00,18,14.20
2008,09,04,00,19,14.20
2008,09,04,00,20,14.20
2008,09,04,00,21,14.20
2008,09,04,00,22,14.20
2008,09,04,00,23,14.20
2008,09,04,00,24,14.20
2008,09,04,00,25,14.20
2008,09,04,00,26,14.10
2008,09,04,00,27,14.10
2008,09,04,00,28,14.10
2008,09,04,00,29,14.10
2008,09,04,00,30,14.10
2008,09,04,00,31,14.10
2008,09,04,00,32,14.10
2008,09,04,00,33,14.10
2008,09,04,00,34,14.10
2008,09,04,00,35,14.10
2008,09,04,00,36,14.10
2008,09,04,00,37,14.10
2008,09,04,00,38,14.10
2008,09,04,00,39,14.10
2008,09,04,00,40,14.10
2008,09,04,00,41,14.10
2008,09,04,00,42,14.10
2008,09,04,00,43,14.10
2008,09,04,00,44,14.10
2008,09,04,00,45,14.10
2008,09,04,00,46,14.10
2008,09,04,00,47,14.10
2008,09,04,00,48,14.00
2008,09,04,00,49,14.00
2008,09,04,00,50,14.00
2008,09,04,00,51,14.00
2008,09,04,00,52,13.90
2008,09,04,00,53,13.90
2008,09,04,00,54,13.90
2008,09,04,00,55,13.90
2008,09,04,00,56,13.90
2008,09,04,00,57,13.90
2008,09,04,00,58,13.90
2008,09,04,00,59,13.90
2008,09,04,01,00,13.90
2008,09,04,01,01,13.90
2008,09,04,01,02,13.90
2008,09,04,01,03,13.90
2008,09,04,01,04,13.90
2008,09,04,01,05,13.80
2008,09,04,01,06,13.80
2008,09,04,01,07,13.80
2008,09,04,01,08,13.80
2008,09,04,01,09,13.80
2008,09,04,01,10,13.80
2008,09,04,01,11,13.80
2008,09,04,01,12,13.80
2008,09,04,01,13,13.80
2008,09,04,01,14,13.80
2008,09,04,01,15,13.80
2008,09,04,01,16,13.80
2008,09,04,01,17,13.70
2008,09,04,01,18,13.80
2008,09,04,01,19,13.80
2008,09,04,01,20,13.70
2008,09,04,01,21,13.70
2008,09,04,01,22,13.70
2008,09,04,01,23,13.70
2008,09,04,01,24,13.70
2008,09,04,01,25,13.70
2008,09,04,01,26,13.60
2008,09,04,01,27,13.60
2008,09,04,01,28,13.60
2008,09,04,01,29,13.50
2008,09,04,01,30,13.50
2008,09,04,01,31,13.50
2008,09,04,01,32,13.40
2008,09,04,01,33,13.40
2008,09,04,01,34,13.40
2008,09,04,01,35,13.30
2008,09,04,01,36,13.30
2008,09,04,01,37,13.30
2008,09,04,01,38,13.30
2008,09,04,01,39,13.30
2008,09,04,01,40,13.30
2008,09,04,01,41,13.30
2008,09,04,01,42,13.30
2008,09,04,01,43,13.20
2008,09,04,01,44,13.20
2008,09,04,01,45,13.20
2008,09,04,01,46,13.20
2008,09,04,01,47,13.20
2008,09,04,01,48,13.20
2008,09,04,01,49,13.10
2008,09,04,01,50,13.10
2008,09,04,01,51,13.10
2008,09,04,01,52,13.10
2008,09,04,01,53,13.00
2008,09,04,01,54,13.00
2008,09,04,01,55,13.00
2008,09,04,01,56,13.00
2008,09,04,01,57,12.90
2008,09,04,01,58,12.90
2008,09,04,01,59,12.90
2008,09,04,02,00,12.90
2008,09,04,02,01,12.90
2008,09,04,02,02,12.90
2008,09,04,02,03,12.80
2008,09,04,02,04,12.80
2008,09,04,02,05,12.80
2008,09,04,02,06,12.80
2008,09,04,02,07,12.80
2008,09,04,02,08,12.80
2008,09,04,02,09,12.70
2008,09,04,02,10,12.70
2008,09,04,02,11,12.70
2008,09,04,02,12,12.60
2008,09,04,02,13,12.60
2008,09,04,02,14,12.60
2008,09,04,02,15,12.50
2008,09,04,02,16,12.50
2008,09,04,02,17,12.40
2008,09,04,02,18,12.40
2008,09,04,02,19,12.40
2008,09,04,02,20,12.40
2008,09,04,02,21,12.40
2008,09,04,02,22,12.40
2008,09,04,02,23,12.40
2008,09,04,02,24,12.40
2008,09,04,02,25,12.40
2008,09,04,02,26,12.30
2008,09,04,02,27,12.30
2008,09,04,02,28,12.30
2008,09,04,02,29,12.30
2008,09,04,02,30,12.30
2008,09,04,02,31,12.30
2008,09,04,02,32,12.20
2008,09,04,02,33,12.20
2008,09,04,02,34,12.20
2008,09,04,02,35,12.20
2008,09,04,02,36,12.20
2008,09,04,02,37,12.20
2008,09,04,02,38,12.20
2008,09,04,02,39,12.10
2008,09,04,02,40,12.10
2008,09,04,02,41,12.10
2008,09,04,02,42,12.10
2008,09,04,02,43,12.10
2008,09,04,02,44,12.10
2008,09,04,02,45,12.10
2008,09,04,02,46,12.10
2008,09,04,02,47,12.00
2008,09,04,02,48,12.00
2008,09,04,02,49,12.00
2008,09,04,02,50,11.90
2008,09,04,02,51,11.90
2008,09,04,02,52,11.90
2008,09,04,02,53,11.90
2008,09,04,02,54,11.90
2008,09,04,02,55,11.80
2008,09,04,02,56,11.80
2008,09,04,02,57,11.80
2008,09,04,02,58,11.80
2008,09,04,02,59,11.80
2008,09,04,03,00,11.80
2008,09,04,03,01,11.80
2008,09,04,03,02,11.80
2008,09,04,03,03,11.80
2008,09,04,03,04,11.70
2008,09,04,03,05,11.70
2008,09,04,03,06,11.70
2008,09,04,03,07,11.70
2008,09,04,03,08,11.70
2008,09,04,03,09,11.70
2008,09,04,03,10,11.70
2008,09,04,03,11,11.70
2008,09,04,03,12,11.70
2008,09,04,03,13,11.70
2008,09,04,03,14,11.70
2008,09,04,03,15,11.60
2008,09,04,03,16,11.60
2008,09,04,03,17,11.60
2008,09,04,03,18,11.60
2008,09,04,03,19,11.60
2008,09,04,03,20,11.50
2008,09,04,03,21,11.50
2008,09,04,03,22,11.50
2008,09,04,03,23,11.40
2008,09,04,03,24,11.40
2008,09,04,03,25,11.40
2008,09,04,03,26,11.40
2008,09,04,03,27,11.40
2008,09,04,03,28,11.30
2008,09,04,03,29,11.30
2008,09,04,03,30,11.30
2008,09,04,03,31,11.30
2008,09,04,03,32,11.30
2008,09,04,03,33,11.30
2008,09,04,03,34,11.30
2008,09,04,03,35,11.30
2008,09,04,03,36,11.30
2008,09,04,03,37,11.30
2008,09,04,03,38,11.30
2008,09,04,03,39,11.30
2008,09,04,03,40,11.30
2008,09,04,03,41,11.20
2008,09,04,03,42,11.20
2008,09,04,03,43,11.20
2008,09,04,03,44,11.20
2008,09,04,03,45,11.20
2008,09,04,03,46,11.20
2008,09,04,03,47,11.20
2008,09,04,03,48,11.20
2008,09,04,03,49,11.20
2008,09,04,03,50,11.20
2008,09,04,03,51,11.10
2008,09,04,03,52,11.10
2008,09,04,03,53,11.10
2008,09,04,03,54,11.10
2008,09,04,03,55,11.10
2008,09,04,03,56,11.10
2008,09,04,03,57,11.10
2008,09,04,03,58,11.00
2008,09,04,03,59,11.00
2008,09,04,04,00,11.00
2008,09,04,04,01,11.00
2008,09,04,04,02,11.00
2008,09,04,04,03,10.90
2008,09,04,04,04,10.90
2008,09,04,04,05,10.90
2008,09,04,04,06,10.90
2008,09,04,04,07,10.90
2008,09,04,04,08,10.90
2008,09,04,04,09,10.90
2008,09,04,04,10,10.80
2008,09,04,04,11,10.80
2008,09,04,04,12,10.80
2008,09,04,04,13,10.80
2008,09,04,04,14,10.80
2008,09,04,04,15,10.80
2008,09,04,04,16,10.80
2008,09,04,04,17,10.80
2008,09,04,04,18,10.80
2008,09,04,04,19,10.80
2008,09,04,04,20,10.80
2008,09,04,04,21,10.80
2008,09,04,04,22,10.80
2008,09,04,04,23,10.80
2008,09,04,04,24,10.80
2008,09,04,04,25,10.80
2008,09,04,04,26,10.80
2008,09,04,04,27,10.70
2008,09,04,04,28,10.70
2008,09,04,04,29,10.70
2008,09,04,04,30,10.70
2008,09,04,04,31,10.70
2008,09,04,04,32,10.70
2008,09,04,04,33,10.70
2008,09,04,04,34,10.60
2008,09,04,04,35,10.60
2008,09,04,04,36,10.60
2008,09,04,04,37,10.60
2008,09,04,04,38,10.50
2008,09,04,04,39,10.50
2008,09,04,04,40,10.50
2008,09,04,04,41,10.50
2008,09,04,04,42,10.50
2008,09,04,04,43,10.50
2008,09,04,04,44,10.50
2008,09,04,04,45,10.50
2008,09,04,04,46,10.40
2008,09,04,04,47,10.40
2008,09,04,04,48,10.40
2008,09,04,04,49,10.40
2008,09,04,04,50,10.40
2008,09,04,04,51,10.40
2008,09,04,04,52,10.40
2008,09,04,04,53,10.40
2008,09,04,04,54,10.40
2008,09,04,04,55,10.40
2008,09,04,04,56,10.40
2008,09,04,04,57,10.40
2008,09,04,04,58,10.40
2008,09,04,04,59,10.40
2008,09,04,05,00,10.40
2008,09,04,05,01,10.40
2008,09,04,05,02,10.40
2008,09,04,05,03,10.40
2008,09,04,05,04,10.30
2008,09,04,05,05,10.30
2008,09,04,05,06,10.30
2008,09,04,05,07,10.30
2008,09,04,05,08,10.30
2008,09,04,05,09,10.30
2008,09,04,05,10,10.30
2008,09,04,05,11,10.30
2008,09,04,05,12,10.30
2008,09,04,05,13,10.30
2008,09,04,05,14,10.30
2008,09,04,05,15,10.30
2008,09,04,05,16,10.30
2008,09,04,05,17,10.30
2008,09,04,05,18,10.30
2008,09,04,05,19,10.30
2008,09,04,05,20,10.30
2008,09,04,05,21,10.20
2008,09,04,05,22,10.20
2008,09,04,05,23,10.20
2008,09,04,05,24,10.20
2008,09,04,05,25,10.20
2008,09,04,05,26,10.20
2008,09,04,05,27,10.20
2008,09,04,05,28,10.20
2008,09,04,05,29,10.20
2008,09,04,05,30,10.20
2008,09,04,05,31,10.20
2008,09,04,05,32,10.20
2008,09,04,05,33,10.20
2008,09,04,05,34,10.20
2008,09,04,05,35,10.10
2008,09,04,05,36,10.10
2008,09,04,05,37,10.10
2008,09,04,05,38,10.10
2008,09,04,05,39,10.10
2008,09,04,05,40,10.10
2008,09,04,05,41,10.10
2008,09,04,05,42,10.10
2008,09,04,05,43,10.10
2008,09,04,05,44,10.10
2008,09,04,05,45,10.10
2008,09,04,05,46,10.10
2008,09,04,05,47,10.10
2008,09,04,05,48,10.10
2008,09,04,05,49,10.10
2008,09,04,05,50,10.10
2008,09,04,05,51,10.00
2008,09,04,05,52,10.00
2008,09,04,05,53,10.00
2008,09,04,05,54,10.00
2008,09,04,05,55,10.00
2008,09,04,05,56,10.00
2008,09,04,05,57,10.00
2008,09,04,05,58,10.00
2008,09,04,05,59,9.90
2008,09,04,06,00,9.90
2008,09,04,06,01,9.90
2008,09,04,06,02,9.90
2008,09,04,06,03,9.90
2008,09,04,06,04,9.90
2008,09,04,06,05,9.90
2008,09,04,06,06,9.90
2008,09,04,06,07,9.90
2008,09,04,06,08,9.90
2008,09,04,06,09,9.90
2008,09,04,06,10,9.90
2008,09,04,06,11,9.90
2008,09,04,06,12,9.90
2008,09,04,06,13,9.90
2008,09,04,06,14,9.90
2008,09,04,06,15,9.90
2008,09,04,06,16,9.80
2008,09,04,06,17,9.80
2008,09,04,06,18,9.70
2008,09,04,06,19,9.70
2008,09,04,06,20,9.70
2008,09,04,06,21,9.70
2008,09,04,06,22,9.70
2008,09,04,06,23,9.70
2008,09,04,06,24,9.70
2008,09,04,06,25,9.70
2008,09,04,06,26,9.70
2008,09,04,06,27,9.70
2008,09,04,06,28,9.70
2008,09,04,06,29,9.70
2008,09,04,06,30,9.70
2008,09,04,06,31,9.70
2008,09,04,06,32,9.70
2008,09,04,06,33,9.70
2008,09,04,06,34,9.70
2008,09,04,06,35,9.70
2008,09,04,06,36,9.70
2008,09,04,06,37,9.70
2008,09,04,06,38,9.70
2008,09,04,06,39,9.70
2008,09,04,06,40,9.70
2008,09,04,06,41,9.70
2008,09,04,06,42,9.70
2008,09,04,06,43,9.70
2008,09,04,06,44,9.70
2008,09,04,06,45,9.70
2008,09,04,06,46,9.70
2008,09,04,06,47,9.70
2008,09,04,06,48,9.70
2008,09,04,06,49,9.70
2008,09,04,06,50,9.60
2008,09,04,06,51,9.60
2008,09,04,06,52,9.60
2008,09,04,06,53,9.60
2008,09,04,06,54,9.60
2008,09,04,06,55,9.60
2008,09,04,06,56,9.60
2008,09,04,06,57,9.60
2008,09,04,06,58,9.60
2008,09,04,06,59,9.60
2008,09,04,07,00,9.60
2008,09,04,07,01,9.60
2008,09,04,07,02,9.60
2008,09,04,07,03,9.60
2008,09,04,07,04,9.60
2008,09,04,07,05,9.60
2008,09,04,07,06,9.60
2008,09,04,07,07,9.60
2008,09,04,07,08,9.60
2008,09,04,07,09,9.60
2008,09,04,07,10,9.60
2008,09,04,07,11,9.60
2008,09,04,07,12,9.60
2008,09,04,07,13,9.60
2008,09,04,07,14,9.60
2008,09,04,07,15,9.60
2008,09,04,07,16,9.60
2008,09,04,07,17,9.60
2008,09,04,07,18,9.60
2008,09,04,07,19,9.60
2008,09,04,07,20,9.60
2008,09,04,07,21,9.60
2008,09,04,07,22,9.60
2008,09,04,07,23,9.60
2008,09,04,07,24,9.70
2008,09,04,07,25,9.70
2008,09,04,07,26,9.70
2008,09,04,07,27,9.70
2008,09,04,07,28,9.70
2008,09,04,07,29,9.70
2008,09,04,07,30,9.70
2008,09,04,07,31,9.70
2008,09,04,07,32,9.70
2008,09,04,07,33,9.70
2008,09,04,07,34,9.70
2008,09,04,07,35,9.70
2008,09,04,07,36,9.70
2008,09,04,07,37,9.70
2008,09,04,07,38,9.80
2008,09,04,07,39,9.80
2008,09,04,07,40,9.80
2008,09,04,07,41,9.80
2008,09,04,07,42,9.80
2008,09,04,07,43,9.80
2008,09,04,07,44,9.80
2008,09,04,07,45,9.90
2008,09,04,07,46,9.90
2008,09,04,07,47,9.90
2008,09,04,07,48,9.90
2008,09,04,07,49,10.00
2008,09,04,07,50,10.00
2008,09,04,07,51,10.10
2008,09,04,07,52,10.10
2008,09,04,07,53,10.10
2008,09,04,07,54,10.20
2008,09,04,07,55,10.20
2008,09,04,07,56,10.20
2008,09,04,07,57,10.30
2008,09,04,07,58,10.30
2008,09,04,07,59,10.30
2008,09,04,08,00,10.30
2008,09,04,08,01,10.30
2008,09,04,08,02,10.40
2008,09,04,08,03,10.50
2008,09,04,08,04,10.50
2008,09,04,08,05,10.60
2008,09,04,08,06,10.70
2008,09,04,08,07,10.70
2008,09,04,08,08,10.80
2008,09,04,08,09,10.80
2008,09,04,08,10,10.90
2008,09,04,08,11,11.00
2008,09,04,08,12,11.10
2008,09,04,08,13,11.10
2008,09,04,08,14,11.20
2008,09,04,08,15,11.30
2008,09,04,08,16,11.40
2008,09,04,08,17,11.60
2008,09,04,08,18,11.70
2008,09,04,08,19,11.80
2008,09,04,08,20,11.90
2008,09,04,08,21,12.00
2008,09,04,08,22,12.10
2008,09,04,08,23,12.20
2008,09,04,08,24,12.30
2008,09,04,08,25,12.40
2008,09,04,08,26,12.50
2008,09,04,08,27,12.60
2008,09,04,08,28,12.70
2008,09,04,08,29,12.80
2008,09,04,08,30,12.90
2008,09,04,08,31,12.90
2008,09,04,08,32,12.90
2008,09,04,08,33,13.00
2008,09,04,08,34,13.00
2008,09,04,08,35,13.00
2008,09,04,08,36,13.10
2008,09,04,08,37,13.10
2008,09,04,08,38,13.10
2008,09,04,08,39,13.10
2008,09,04,08,40,13.10
2008,09,04,08,41,13.10
2008,09,04,08,42,13.10
2008,09,04,08,43,13.10
2008,09,04,08,44,13.10
2008,09,04,08,45,13.20
2008,09,04,08,46,13.20
2008,09,04,08,47,13.30
2008,09,04,08,48,13.30
2008,09,04,08,49,13.40
2008,09,04,08,50,13.40
2008,09,04,08,51,13.50
2008,09,04,08,52,13.60
2008,09,04,08,53,13.70
2008,09,04,08,54,13.80
2008,09,04,08,55,13.80
2008,09,04,08,56,13.90
2008,09,04,08,57,13.90
2008,09,04,08,58,14.00
2008,09,04,08,59,14.10
2008,09,04,09,00,14.20
2008,09,04,09,01,14.30
2008,09,04,09,02,14.40
2008,09,04,09,03,14.50
2008,09,04,09,04,14.60
2008,09,04,09,05,14.60
2008,09,04,09,06,14.70
2008,09,04,09,07,14.80
2008,09,04,09,08,14.80
2008,09,04,09,09,14.80
2008,09,04,09,10,14.80
2008,09,04,09,11,14.80
2008,09,04,09,12,14.80
2008,09,04,09,13,14.80
2008,09,04,09,14,14.80
2008,09,04,09,15,14.80
2008,09,04,09,16,14.80
2008,09,04,09,17,14.80
2008,09,04,09,18,14.80
2008,09,04,09,19,14.80
2008,09,04,09,20,14.80
2008,09,04,09,21,14.90
2008,09,04,09,22,14.90
2008,09,04,09,23,15.00
2008,09,04,09,24,15.00
2008,09,04,09,25,15.00
2008,09,04,09,26,15.00
2008,09,04,09,27,15.00
2008,09,04,09,28,15.00
2008,09,04,09,29,15.00
2008,09,04,09,30,15.00
2008,09,04,09,31,15.00
2008,09,04,09,32,15.00
2008,09,04,09,33,15.00
2008,09,04,09,34,15.00
2008,09,04,09,35,15.10
2008,09,04,09,36,15.10
2008,09,04,09,37,15.10
2008,09,04,09,38,15.20
2008,09,04,09,39,15.20
2008,09,04,09,40,15.20
2008,09,04,09,41,15.20
2008,09,04,09,42,15.30
2008,09,04,09,43,15.30
2008,09,04,09,44,15.40
2008,09,04,09,45,15.40
2008,09,04,09,46,15.50
2008,09,04,09,47,15.60
2008,09,04,09,48,15.60
2008,09,04,09,49,15.70
2008,09,04,09,50,15.70
2008,09,04,09,51,15.80
2008,09,04,09,52,15.80
2008,09,04,09,53,15.80
2008,09,04,09,54,15.90
2008,09,04,09,55,15.90
2008,09,04,09,56,15.90
2008,09,04,09,57,16.00
2008,09,04,09,58,16.10
2008,09,04,09,59,16.10
2008,09,04,10,00,16.20
2008,09,04,10,01,16.30
2008,09,04,10,02,16.30
2008,09,04,10,03,16.30
2008,09,04,10,04,16.30
2008,09,04,10,05,16.30
2008,09,04,10,06,16.30
2008,09,04,10,07,16.30
2008,09,04,10,08,16.30
2008,09,04,10,09,16.30
2008,09,04,10,10,16.30
2008,09,04,10,11,16.20
2008,09,04,10,12,16.20
2008,09,04,10,13,16.20
2008,09,04,10,14,16.20
2008,09,04,10,15,16.10
2008,09,04,10,16,16.10
2008,09,04,10,17,16.10
2008,09,04,10,18,16.10
2008,09,04,10,19,16.10
2008,09,04,10,20,16.10
2008,09,04,10,21,16.10
2008,09,04,10,22,16.10
2008,09,04,10,23,16.00
2008,09,04,10,24,16.00
2008,09,04,10,25,16.00
2008,09,04,10,26,16.00
2008,09,04,10,27,16.00
2008,09,04,10,28,16.00
2008,09,04,10,29,16.00
2008,09,04,10,30,16.10
2008,09,04,10,31,16.10
2008,09,04,10,32,16.10
2008,09,04,10,33,16.10
2008,09,04,10,34,16.10
2008,09,04,10,35,16.10
2008,09,04,10,36,16.20
2008,09,04,10,37,16.20
2008,09,04,10,38,16.20
2008,09,04,10,39,16.20
2008,09,04,10,40,16.20
2008,09,04,10,41,16.20
2008,09,04,10,42,16.20
2008,09,04,10,43,16.20
2008,09,04,10,44,16.20
2008,09,04,10,45,16.20
2008,09,04,10,46,16.20
2008,09,04,10,47,16.10
2008,09,04,10,48,16.10
2008,09,04,10,49,16.10
2008,09,04,10,50,16.10
2008,09,04,10,51,16.10
2008,09,04,10,52,16.20
2008,09,04,10,53,16.20
2008,09,04,10,54,16.20
2008,09,04,10,55,16.30
2008,09,04,10,56,16.30
2008,09,04,10,57,16.30
2008,09,04,10,58,16.40
2008,09,04,10,59,16.50
2008,09,04,11,00,16.50
2008,09,04,11,01,16.60
2008,09,04,11,02,16.60
2008,09,04,11,03,16.60
2008,09,04,11,04,16.60
2008,09,04,11,05,16.70
2008,09,04,11,06,16.70
2008,09,04,11,07,16.70
2008,09,04,11,08,16.80
2008,09,04,11,09,16.80
2008,09,04,11,10,16.80
2008,09,04,11,11,16.90
2008,09,04,11,12,17.00
2008,09,04,11,13,17.00
2008,09,04,11,14,17.00
2008,09,04,11,15,17.00
2008,09,04,11,16,17.00
2008,09,04,11,17,17.00
2008,09,04,11,18,17.00
2008,09,04,11,19,16.90
2008,09,04,11,20,16.90
2008,09,04,11,21,16.80
2008,09,04,11,22,16.70
2008,09,04,11,23,16.70
2008,09,04,11,24,16.70
2008,09,04,11,25,16.80
2008,09,04,11,26,16.80
2008,09,04,11,27,16.80
2008,09,04,11,28,16.80
2008,09,04,11,29,16.80
2008,09,04,11,30,16.70
2008,09,04,11,31,16.70
2008,09,04,11,32,16.70
2008,09,04,11,33,16.70
2008,09,04,11,34,16.70
2008,09,04,11,35,16.70
2008,09,04,11,36,16.70
2008,09,04,11,37,16.80
2008,09,04,11,38,16.80
2008,09,04,11,39,16.80
2008,09,04,11,40,16.80
2008,09,04,11,41,16.80
2008,09,04,11,42,16.80
2008,09,04,11,43,16.90
2008,09,04,11,44,16.80
2008,09,04,11,45,16.90
2008,09,04,11,46,16.90
2008,09,04,11,47,17.00
2008,09,04,11,48,17.00
2008,09,04,11,49,17.10
2008,09,04,11,50,17.10
2008,09,04,11,51,17.10
2008,09,04,11,52,17.20
2008,09,04,11,53,17.30
2008,09,04,11,54,17.30
2008,09,04,11,55,17.40
2008,09,04,11,56,17.40
2008,09,04,11,57,17.40
2008,09,04,11,58,17.50
2008,09,04,11,59,17.60
2008,09,04,12,00,17.60
2008,09,04,12,01,17.60
2008,09,04,12,02,17.70
2008,09,04,12,03,17.70
2008,09,04,12,04,17.80
2008,09,04,12,05,17.80
2008,09,04,12,06,17.90
2008,09,04,12,07,17.90
2008,09,04,12,08,17.90
2008,09,04,12,09,17.90
2008,09,04,12,10,18.00
2008,09,04,12,11,18.00
2008,09,04,12,12,18.00
2008,09,04,12,13,18.00
2008,09,04,12,14,18.00
2008,09,04,12,15,18.00
2008,09,04,12,16,18.00
2008,09,04,12,17,18.00
2008,09,04,12,18,18.10
2008,09,04,12,19,18.10
2008,09,04,12,20,18.10
2008,09,04,12,21,18.20
2008,09,04,12,22,18.20
2008,09,04,12,23,18.30
2008,09,04,12,24,18.30
2008,09,04,12,25,18.40
2008,09,04,12,26,18.40
2008,09,04,12,27,18.50
2008,09,04,12,28,18.60
2008,09,04,12,29,18.50
2008,09,04,12,30,18.50
2008,09,04,12,31,18.60
2008,09,04,12,32,18.60
2008,09,04,12,33,18.70
2008,09,04,12,34,18.70
2008,09,04,12,35,18.80
2008,09,04,12,36,18.80
2008,09,04,12,37,18.80
2008,09,04,12,38,18.80
2008,09,04,12,39,18.80
2008,09,04,12,40,18.70
2008,09,04,12,41,18.70
2008,09,04,12,42,18.70
2008,09,04,12,43,18.80
2008,09,04,12,44,18.80
2008,09,04,12,45,18.80
2008,09,04,12,46,18.60
2008,09,04,12,47,18.60
2008,09,04,12,48,18.50
2008,09,04,12,49,18.60
2008,09,04,12,50,18.60
2008,09,04,12,51,18.70
2008,09,04,12,52,18.80
2008,09,04,12,53,18.80
2008,09,04,12,54,18.90
2008,09,04,12,55,18.90
2008,09,04,12,56,18.90
2008,09,04,12,57,18.80
2008,09,04,12,58,18.90
2008,09,04,12,59,18.90
2008,09,04,13,00,18.90
2008,09,04,13,01,19.00
2008,09,04,13,02,19.00
2008,09,04,13,03,19.00
2008,09,04,13,04,19.00
2008,09,04,13,05,18.90
2008,09,04,13,06,18.90
2008,09,04,13,07,19.00
2008,09,04,13,08,19.10
2008,09,04,13,09,19.00
2008,09,04,13,10,19.00
2008,09,04,13,11,19.00
2008,09,04,13,12,19.10
2008,09,04,13,13,19.10
2008,09,04,13,14,19.10
2008,09,04,13,15,19.10
2008,09,04,13,16,19.10
2008,09,04,13,17,19.10
2008,09,04,13,18,19.10
2008,09,04,13,19,19.20
2008,09,04,13,20,19.20
2008,09,04,13,21,19.20
2008,09,04,13,22,19.20
2008,09,04,13,23,19.20
2008,09,04,13,24,19.20
2008,09,04,13,25,19.30
2008,09,04,13,26,19.30
2008,09,04,13,27,19.30
2008,09,04,13,28,19.30
2008,09,04,13,29,19.30
2008,09,04,13,30,19.30
2008,09,04,13,31,19.40
2008,09,04,13,32,19.40
2008,09,04,13,33,19.40
2008,09,04,13,34,19.50
2008,09,04,13,35,19.50
2008,09,04,13,36,19.50
2008,09,04,13,37,19.50
2008,09,04,13,38,19.50
2008,09,04,13,39,19.50
2008,09,04,13,40,19.50
2008,09,04,13,41,19.50
2008,09,04,13,42,19.60
2008,09,04,13,43,19.70
2008,09,04,13,44,19.70
2008,09,04,13,45,19.70
2008,09,04,13,46,19.70
2008,09,04,13,47,19.60
2008,09,04,13,48,19.60
2008,09,04,13,49,19.60
2008,09,04,13,50,19.60
2008,09,04,13,51,19.60
2008,09,04,13,52,19.50
2008,09,04,13,53,19.50
2008,09,04,13,54,19.50
2008,09,04,13,55,19.50
2008,09,04,13,56,19.60
2008,09,04,13,57,19.70
2008,09,04,13,58,19.80
2008,09,04,13,59,19.90
2008,09,04,14,00,20.00
2008,09,04,14,01,20.00
2008,09,04,14,02,19.90
2008,09,04,14,03,19.90
2008,09,04,14,04,19.90
2008,09,04,14,05,20.00
2008,09,04,14,06,20.00
2008,09,04,14,07,20.00
2008,09,04,14,08,20.00
2008,09,04,14,09,20.10
2008,09,04,14,10,20.10
2008,09,04,14,11,20.20
2008,09,04,14,12,20.20
2008,09,04,14,13,20.30
2008,09,04,14,14,20.30
2008,09,04,14,15,20.30
2008,09,04,14,16,20.30
2008,09,04,14,17,20.30
2008,09,04,14,18,20.30
2008,09,04,14,19,20.30
2008,09,04,14,20,20.30
2008,09,04,14,21,20.30
2008,09,04,14,22,20.30
2008,09,04,14,23,20.30
2008,09,04,14,24,20.40
2008,09,04,14,25,20.40
2008,09,04,14,26,20.40
2008,09,04,14,27,20.40
2008,09,04,14,28,20.30
2008,09,04,14,29,20.30
2008,09,04,14,30,20.20
2008,09,04,14,31,20.20
2008,09,04,14,32,20.20
2008,09,04,14,33,20.30
2008,09,04,14,34,20.30
2008,09,04,14,35,20.30
2008,09,04,14,36,20.20
2008,09,04,14,37,20.10
2008,09,04,14,38,20.10
2008,09,04,14,39,20.10
2008,09,04,14,40,20.10
2008,09,04,14,41,20.10
2008,09,04,14,42,20.10
2008,09,04,14,43,20.20
2008,09,04,14,44,20.30
2008,09,04,14,45,20.30
2008,09,04,14,46,20.30
2008,09,04,14,47,20.30
2008,09,04,14,48,20.40
2008,09,04,14,49,20.40
2008,09,04,14,50,20.40
2008,09,04,14,51,20.50
2008,09,04,14,52,20.50
2008,09,04,14,53,20.50
2008,09,04,14,54,20.50
2008,09,04,14,55,20.50
2008,09,04,14,56,20.50
2008,09,04,14,57,20.60
2008,09,04,14,58,20.60
2008,09,04,14,59,20.70
2008,09,04,15,00,20.70
2008,09,04,15,01,20.70
2008,09,04,15,02,20.80
2008,09,04,15,03,20.80
2008,09,04,15,04,20.80
2008,09,04,15,05,20.90
2008,09,04,15,06,20.90
2008,09,04,15,07,20.90
2008,09,04,15,08,20.90
2008,09,04,15,09,20.90
2008,09,04,15,10,20.90
2008,09,04,15,11,20.90
2008,09,04,15,12,20.80
2008,09,04,15,13,20.80
2008,09,04,15,14,20.80
2008,09,04,15,15,20.70
2008,09,04,15,16,20.70
2008,09,04,15,17,20.70
2008,09,04,15,18,20.70
2008,09,04,15,19,20.60
2008,09,04,15,20,20.60
2008,09,04,15,21,20.60
2008,09,04,15,22,20.50
2008,09,04,15,23,20.40
2008,09,04,15,24,20.40
2008,09,04,15,25,20.30
2008,09,04,15,26,20.40
2008,09,04,15,27,20.40
2008,09,04,15,28,20.40
2008,09,04,15,29,20.40
2008,09,04,15,30,20.40
2008,09,04,15,31,20.40
2008,09,04,15,32,20.40
2008,09,04,15,33,20.40
2008,09,04,15,34,20.40
2008,09,04,15,35,20.40
2008,09,04,15,36,20.40
2008,09,04,15,37,20.40
2008,09,04,15,38,20.50
2008,09,04,15,39,20.50
2008,09,04,15,40,20.50
2008,09,04,15,41,20.60
2008,09,04,15,42,20.70
2008,09,04,15,43,20.70
2008,09,04,15,44,20.70
2008,09,04,15,45,20.70
2008,09,04,15,46,20.70
2008,09,04,15,47,20.80
2008,09,04,15,48,20.80
2008,09,04,15,49,20.80
2008,09,04,15,50,20.70
2008,09,04,15,51,20.80
2008,09,04,15,52,20.80
2008,09,04,15,53,20.80
2008,09,04,15,54,20.80
2008,09,04,15,55,20.70
2008,09,04,15,56,20.80
2008,09,04,15,57,20.80
2008,09,04,15,58,20.80
2008,09,04,15,59,20.80
2008,09,04,16,00,20.90
2008,09,04,16,01,21.00
2008,09,04,16,02,21.10
2008,09,04,16,03,21.20
2008,09,04,16,04,21.20
2008,09,04,16,05,21.20
2008,09,04,16,06,21.30
2008,09,04,16,07,21.20
2008,09,04,16,08,21.20
2008,09,04,16,09,20.90
2008,09,04,16,10,20.80
2008,09,04,16,11,20.80
2008,09,04,16,12,20.80
2008,09,04,16,13,20.80
2008,09,04,16,14,20.80
2008,09,04,16,15,20.80
2008,09,04,16,16,20.80
2008,09,04,16,17,20.80
2008,09,04,16,18,20.80
2008,09,04,16,19,20.80
2008,09,04,16,20,20.80
2008,09,04,16,21,20.80
2008,09,04,16,22,20.80
2008,09,04,16,23,20.90
2008,09,04,16,24,20.90
2008,09,04,16,25,21.00
2008,09,04,16,26,21.00
2008,09,04,16,27,21.10
2008,09,04,16,28,21.10
2008,09,04,16,29,21.10
2008,09,04,16,30,21.10
2008,09,04,16,31,21.10
2008,09,04,16,32,21.10
2008,09,04,16,33,21.10
2008,09,04,16,34,21.10
2008,09,04,16,35,21.00
2008,09,04,16,36,20.90
2008,09,04,16,37,20.80
2008,09,04,16,38,20.70
2008,09,04,16,39,20.70
2008,09,04,16,40,20.70
2008,09,04,16,41,20.60
2008,09,04,16,42,20.60
2008,09,04,16,43,20.50
2008,09,04,16,44,20.40
2008,09,04,16,45,20.40
2008,09,04,16,46,20.30
2008,09,04,16,47,20.30
2008,09,04,16,48,20.20
2008,09,04,16,49,20.20
2008,09,04,16,50,20.20
2008,09,04,16,51,20.20
2008,09,04,16,52,20.20
2008,09,04,16,53,20.30
2008,09,04,16,54,20.30
2008,09,04,16,55,20.20
2008,09,04,16,56,20.20
2008,09,04,16,57,20.20
2008,09,04,16,58,20.10
2008,09,04,16,59,20.10
2008,09,04,17,00,20.10
2008,09,04,17,01,20.00
2008,09,04,17,02,19.90
2008,09,04,17,03,19.90
2008,09,04,17,04,19.80
2008,09,04,17,05,19.80
2008,09,04,17,06,19.80
2008,09,04,17,07,19.80
2008,09,04,17,08,19.80
2008,09,04,17,09,19.80
2008,09,04,17,10,19.80
2008,09,04,17,11,19.80
2008,09,04,17,12,19.80
2008,09,04,17,13,19.80
2008,09,04,17,14,19.80
2008,09,04,17,15,19.80
2008,09,04,17,16,19.80
2008,09,04,17,17,19.80
2008,09,04,17,18,19.90
2008,09,04,17,19,19.90
2008,09,04,17,20,19.90
2008,09,04,17,21,19.90
2008,09,04,17,22,19.90
2008,09,04,17,23,19.90
2008,09,04,17,24,19.90